www.pogodaiklimat.ru

Погода и климат >> Архив погоды >> Япония >> Tokyo


АРХИВ ПОГОДЫ в Tokyo

Время (UTC), дата Ветер
(напр.,м/с)
 
Видим.   Явления Облачность Т
(С)
Тd
(С)
f
(%)
Тe
(С)
Тes
(С)
Комфортность P
(гПа)
Po
(гПа)
Тmin
(С)
Tmax
(С)
R
(мм)
S
(см)
19 14.02 СЗ 3 н/о н/о +1.7 -7.3 51 -2 -2 по сезону 1024.7 1021.6
20 14.02 СЗ 3 н/о н/о +1.8 -7.8 49 -1 -1 по сезону 1025.0 1021.9
21 14.02 СЗ 4 20 км ясно +2.8 -8.5 43 -1 -1 прохладно 1025.5 1022.4
22 14.02 СЗ 2 н/о н/о +3.2 -8.5 42 +2 +2 тепло 1026.0 1022.9
23 14.02 С 2 н/о н/о +4.6 -7.2 42 +3 +3 по сезону 1026.4 1023.4
00 15.02 СЗ 5 40 км 1/1
[Cu hum]
+6.7 -7.3 36 +4 +6 по сезону 1026.8 1023.8 +1.2
01 15.02 СЗ 4 н/о н/о +8.6 -6.8 33 +6 +6 тепло 1026.3 1023.3
02 15.02 СЗ 4 н/о н/о +10.0 -7.7 28 +8 +8 тепло 1025.9 1022.9
03 15.02 СЗ 5 40 км 1/1
[Cu hum]
+10.8 -9.5 23 +9 +14 тепло 1024.8 1021.8
04 15.02 СЗ 4 н/о н/о +11.5 -9.5 22 +10 +10 тепло 1024.1 1021.1
05 15.02 З 2 н/о н/о +11.2 -12.2 18 +11 +11 тепло 1023.8 1020.8
06 15.02 Ю 3 40 км 1/1
[Cu hum]
+10.7 -8.5 25 +10 +13 по сезону 1023.7 1020.7
07 15.02 Ю 4 н/о н/о +10.3 -4.9 34 +9 +9 тепло 1023.8 1020.8
08 15.02 Ю 3 н/о н/о +9.0 -1.4 48 +7 +7 тепло 1024.2 1021.2
09 15.02 СЗ 2 20 км 8/8
[Cu Sc]
+9.1 -7.1 31 +8 +8 по сезону 1025.1 1022.1
10 15.02 СЗ 4 н/о н/о +7.7 -7.9 32 +5 +5 тепло 1025.6 1022.6
11 15.02 СЗ 3 н/о н/о +6.6 -6.7 38 +4 +4 по сезону 1025.6 1022.6
12 15.02 СЗ 3 20 км 3/3
[Sc]
+6.1 -6.5 40 +4 +4 по сезону 1025.9 1022.9 +12.8
13 15.02 СЗ 3 н/о н/о +5.7 -5.9 43 +3 +3 тепло 1025.8 1022.8
14 15.02 СЗ 4 н/о н/о +5.1 -5.3 47 +2 +2 по сезону 1025.8 1022.8
15 15.02 СЗ 2 н/о н/о +5.0 -5.4 47 +3 +3 по сезону 1025.8 1022.8
16 15.02 СЗ 3 н/о н/о +4.6 -5.4 48 +2 +2 тепло 1025.6 1022.6
17 15.02 С 2 н/о н/о +3.9 -5.3 51 +2 +2 по сезону 1025.2 1022.2
18 15.02 С 2 20 км ясно +3.7 -5.2 52 +2 +2 по сезону 1025.0 1022.0
19 15.02 С 1 н/о н/о +3.0 -5.4 54 +2 +2 тепло 1025.1 1022.0
20 15.02 С 2 н/о н/о +2.8 -5.6 54 +1 +1 по сезону 1025.7 1022.6
21 15.02 С 2 20 км 1/1
[Sc]
+1.8 -5.1 60 -0 -0 по сезону 1026.3 1023.2
22 15.02 С 2 н/о н/о +1.7 -5.0 61 -1 -1 по сезону 1026.6 1023.5
23 15.02 СЗ 2 н/о н/о +4.0 -4.9 52 +2 +2 по сезону 1026.8 1023.8
00 16.02 З 1 30 км ясно +5.4 -5.6 45 +5 +11 по сезону 1026.0 1023.0 +1.3
01 16.02 СВ 2 н/о н/о +8.0 -4.4 41 +7 +7 тепло 1025.8 1022.8
02 16.02 С 1 н/о н/о +9.5 -5.6 34 +10 +10 тепло 1025.4 1022.4
03 16.02 ЮВ 2 25 км ясно +11.0 -3.9 35 +11 +22 опасность
простуды
1024.0 1021.0
04 16.02 Ю 3 н/о н/о +11.3 -4.0 34 +10 +10 тепло 1023.1 1020.1
05 16.02 Ю 3 н/о н/о +11.6 -2.6 37 +10 +10 тепло 1022.9 1019.9
06 16.02 Ю 5 20 км ясно +12.1 +0.2 44 +10 +12 по сезону 1022.4 1019.5
07 16.02 Ю 4 н/о н/о +12.0 +2.2 51 +10 +10 тепло 1022.2 1019.3
08 16.02 Ю 4 н/о н/о +11.1 +3.4 59 +9 +9 тепло 1022.4 1019.4
09 16.02 Ю 4 20 км 1/1
[Cu hum]
+10.3 +4.7 68 +8 +8 по сезону 1021.9 1018.9
10 16.02 Ю 3 н/о н/о +10.3 +4.2 66 +8 +8 тепло 1022.2 1019.2
11 16.02 Ю 2 н/о н/о +8.2 +3.9 74 +7 +7 тепло 1021.7 1018.7
12 16.02 Ю 2 15 км 9/0
[Ci sp]
+7.8 +4.0 77 +6 +6 по сезону 1021.6 1018.6 +13.7
13 16.02 В 1 н/о н/о +7.3 +3.2 75 +7 +7 тепло 1021.3 1018.3
14 16.02 З 1 н/о н/о +7.5 +3.4 75 +7 +7 тепло 1021.1 1018.1
15 16.02 З 3 н/о н/о +7.4 +4.0 79 +5 +5 по сезону 1021.0 1018.0
16 16.02 СЗ 2 н/о н/о +7.2 +3.3 76 +6 +6 тепло 1020.6 1017.6
17 16.02 З 2 н/о н/о +5.8 +3.1 83 +4 +4 тепло 1019.6 1016.6
18 16.02 З 2 10 км 9/0
[Ci sp]
+5.9 +2.2 77 +4 +4 по сезону 1018.8 1015.8
19 16.02 Ю 1 н/о н/о +5.1 +1.6 78 +4 +4 тепло 1017.9 1014.9
20 16.02 Ю 2 н/о н/о +6.1 +0.9 69 +4 +4 тепло 1017.0 1014.0
21 16.02 СЗ 2 20 км 1/1
[Cu hum Ac trans]
+7.8 +1.2 63 +6 +6 по сезону 1016.8 1013.8
22 16.02 Ю 4 н/о н/о +7.1 +1.8 69 +4 +4 тепло 1015.8 1012.8
23 16.02 Ю 4 н/о н/о +14.1 +6.7 61 +13 +13 тепло 1015.1 1012.2
00 17.02 Ю 7 25 км 1/1
[Cu med, cong]
+16.0 +8.3 60 +15 +16 тепло 1014.1 1011.2 +4.8
01 17.02 Ю 7 н/о н/о +17.4 +8.8 57 +16 +16 тепло 1012.7 1009.8
02 17.02 Ю 7 н/о н/о +18.3 +9.4 56 +18 +18 тепло 1011.3 1008.5
03 17.02 Ю 9 10 км 1/1
[Cu med, cong Ci fib]
+18.8 +9.0 53 +18 +20 тепло 1009.2 1006.4
04 17.02 Ю 8 н/о н/о +20.0 +9.0 49 +21 +21 комфорт 1008.5 1005.7
05 17.02 Ю 9 н/о н/о +19.4 +10.2 55 +20 +20 тепло 1007.6 1004.8
06 17.02 Ю 7 15 км 8/8
[Cu med, cong Ci fib]
+18.1 +10.7 62 +17 +18 тепло 1006.7 1003.9
07 17.02 ЮЗ 8 н/о н/о +19.2 +9.7 54 +19 +19 тепло 1006.0 1003.2
08 17.02 ЮЗ 7 н/о н/о +18.4 +9.8 57 +18 +18 тепло 1005.9 1003.1
09 17.02 Ю 6 15 км 1/1
[Cu hum Ci fib]
+16.9 +9.6 62 +16 +16 тепло 1006.1 1003.3
10 17.02 Ю 4 н/о н/о +16.0 +9.9 67 +15 +15 тепло 1006.6 1003.7
11 17.02 СЗ 4 н/о н/о +15.0 +5.2 52 +14 +14 тепло 1008.5 1005.6
12 17.02 СЗ 5 15 км 1/1
[Cu hum]
+12.2 +0.3 44 +10 +10 тепло 1009.6 1006.7 +20.6
13 17.02 С 3 н/о н/о +11.1 -0.7 44 +10 +10 тепло 1010.6 1007.7
14 17.02 С 5 н/о н/о +10.3 -1.1 45 +8 +8 тепло 1010.8 1007.9
15 17.02 С 4 н/о н/о +9.4 -1.9 45 +7 +7 тепло 1011.4 1008.5
16 17.02 СЗ 4 н/о н/о +9.1 -2.5 44 +7 +7 тепло 1011.7 1008.8
17 17.02 С 5 н/о н/о +8.8 -3.4 42 +6 +6 тепло 1012.1 1009.1
18 17.02 СЗ 5 20 км 8/1
[Cu hum Ci sp]
+8.4 -4.1 41 +6 +6 тепло 1012.0 1009.0
19 17.02 СЗ 4 н/о н/о +7.8 -4.6 41 +5 +5 тепло 1012.5 1009.5
20 17.02 СЗ 4 н/о н/о +7.6 -5.5 39 +5 +5 тепло 1012.7 1009.7
21 17.02 СЗ 2 20 км 8/1
[Sc Ci sp]
+6.9 -5.1 42 +5 +5 по сезону 1013.2 1010.2
22 17.02 СЗ 2 н/о н/о +7.0 -4.4 44 +5 +5 тепло 1013.9 1010.9
23 17.02 СЗ 4 н/о н/о +7.4 -5.3 40 +5 +5 тепло 1014.2 1011.2
00 18.02 СЗ 5 25 км 9/1
[Sc Ac trans Ci sp]
+7.9 -5.2 39 +5 +7 по сезону 1014.4 1011.4 +6.5
01 18.02 СЗ 3 н/о н/о +8.8 -5.8 35 +7 +7 тепло 1014.0 1011.0
02 18.02 СЗ 3 н/о н/о +9.6 -5.5 34 +8 +8 тепло 1013.7 1010.8
03 18.02 С 2 20 км 9/3
[Sc Ac As Ci sp]
+9.1 -5.9 34 +8 +12 по сезону 1012.8 1009.9
04 18.02 СВ 3 н/о н/о +9.3 -6.1 33 +8 +8 тепло 1012.1 1009.2
05 18.02 СВ 3 н/о н/о +8.6 -4.9 38 +7 +7 по сезону 1011.6 1008.6
06 18.02 СВ 2 15 км 9/8
[Sc Ci sp]
+9.0 -5.6 35 +8 +9 по сезону 1011.0 1008.1
07 18.02 В 2 н/о н/о +8.7 -6.3 34 +8 +8 тепло 1011.1 1008.2
08 18.02 С 2 н/о н/о +8.2 -4.6 40 +7 +7 тепло 1011.2 1008.2
09 18.02 В 2 15 км 9/9
[Sc]
+8.2 -2.7 46 +7 +7 по сезону 1011.3 1008.3
10 18.02 В 3 н/о н/о +8.1 -2.2 48 +6 +6 тепло 1011.7 1008.7
11 18.02 В 3 н/о н/о +7.6 -1.9 51 +5 +5 по сезону 1011.4 1008.4
12 18.02 В 3 15 км {дождь} 9/9
[Sc Ac trans]
+7.0 -1.2 56 +4 +4 по сезону 1011.3 1008.3 +10.7 0.0
13 18.02 ЮВ 2 н/о н/о +6.8 -1.1 57 +6 +6 тепло 1010.9 1007.9
14 18.02 СВ 2 н/о н/о +6.7 -1.0 58 +5 +5 тепло 1010.5 1007.5
15 18.02 С 3 н/о н/о +6.9 -0.5 59 +4 +4 по сезону 1010.8 1007.8
16 18.02 СЗ 8 н/о н/о +2.9 +0.5 84 -4 -4 по сезону 1012.9 1009.9
17 18.02 С 4 н/о н/о +2.0 -0.4 84 -3 -3 по сезону 1013.5 1010.5
18 18.02 СЗ 5 15 км {снег, дождь} 9/9
[Sc]
+3.2 -3.8 60 -2 -2 прохладно 1013.0 1010.0
19 18.02 СЗ 5 н/о н/о +3.3 -5.3 53 -1 -1 по сезону 1013.2 1010.2
20 18.02 СЗ 4 н/о н/о +2.8 -6.6 50 -1 -1 по сезону 1013.8 1010.8
21 18.02 С 4 20 км 1/1
[Sc]
+2.7 -7.8 46 -1 -1 прохладно 1013.6 1010.6
22 18.02 СЗ 4 н/о н/о +2.8 -7.9 45 -1 -1 по сезону 1015.2 1012.2
23 18.02 С 4 н/о н/о +4.0 -7.4 43 0 0 по сезону 1016.1 1013.1
00 19.02 СЗ 6 40 км 1/1
[Sc]
+5.2 -8.6 36 +1 +3 по сезону 1017.2 1014.2 +1.6
01 19.02 СЗ 5 н/о н/о +6.8 -9.1 31 +4 +4 тепло 1016.9 1013.9
02 19.02 СЗ 5 н/о н/о +8.5 -11.4 23 +6 +6 по сезону 1016.8 1013.8
03 19.02 СЗ 5 40 км 1/1
[Cu hum Ci sp]
+9.3 -12.5 20 +7 +12 по сезону 1016.1 1013.1
04 19.02 СЗ 5 н/о н/о +10.6 -9.7 23 +9 +9 тепло 1015.4 1012.5
05 19.02 С 3 н/о н/о +10.2 -10.6 22 +9 +9 тепло 1015.6 1012.7
06 19.02 Ю 1 30 км 3/1
[Cu hum Ci sp]
+10.4 -9.3 24 +11 +14 тепло 1015.6 1012.7
07 19.02 Ю 4 н/о н/о +9.4 -10.1 24 +8 +8 тепло 1015.6 1012.6
08 19.02 Ю 2 н/о н/о +8.3 -7.4 32 +7 +7 тепло 1015.8 1012.8
09 19.02 Ю 4 30 км 3/3
[Cu Sc]
+8.2 -3.3 44 +6 +6 по сезону 1016.3 1013.3
10 19.02 Ю 2 н/о н/о +6.5 -0.5 61 +5 +5 тепло 1016.2 1013.2
11 19.02 Ю 3 н/о н/о +7.9 +1.3 63 +6 +6 тепло 1016.0 1013.0
12 19.02 ЮВ 3 20 км 1/1
[Sc]
+7.2 +1.9 69 +4 +4 по сезону 1015.5 1012.5 +11.5
13 19.02 ЮВ 2 н/о н/о +5.5 +1.8 77 +4 +4 тепло 1015.1 1012.1
14 19.02 Ю 1 н/о н/о +5.1 +2.1 81 +5 +5 тепло 1014.5 1011.5
15 19.02 СЗ 3 н/о н/о +4.8 -5.3 48 +2 +2 по сезону 1014.8 1011.8
16 19.02 СЗ 3 н/о н/о +4.4 -7.1 43 +2 +2 тепло 1014.7 1011.7
17 19.02 С 1 н/о н/о +3.4 -6.8 47 +3 +3 по сезону 1014.4 1011.4
18 19.02 С 1 20 км 4/0
[Ac trans Ci sp]
+2.0 -6.6 53 +2 +2 по сезону 1013.0 1010.0
19 19.02 СЗ 2 н/о н/о +4.0 -6.8 45 +2 +2 тепло 1012.4 1009.4
20 19.02 СЗ 2 н/о н/о +2.5 -6.1 53 +1 +1 по сезону 1012.0 1009.0
21 19.02 С 2 20 км 1/0
[Ac trans Ci sp]
+3.1 -6.8 48 +1 +1 по сезону 1011.0 1008.0
22 19.02 СЗ 1 н/о н/о +3.2 -5.9 51 +2 +2 тепло 1010.9 1007.9
23 19.02 СВ 1 н/о н/о +5.0 -6.2 44 +4 +4 по сезону 1009.5 1006.5
00 20.02 В 1 25 км 1/1
[Cu med, cong Ci sp]
+8.2 -3.6 43 +8 +14 тепло 1007.9 1005.0 +1.8
01 20.02 Ю 2 н/о н/о +14.2 +5.6 56 +14 +14 тепло 1004.8 1001.9
02 20.02 Ю 6 н/о н/о +17.6 +7.6 52 +17 +17 тепло 1002.8 1000.0
03 20.02 ЮЗ 8 20 км 8/8
[Cu med, cong]
+18.5 +7.6 49 +18 +18 тепло 1000.2 997.4
04 20.02 Ю 8 н/о н/о +18.8 +9.0 53 +19 +19 тепло 997.7 994.9
05 20.02 ЮЗ 7 н/о н/о +18.7 +10.0 57 +19 +19 тепло 996.4 993.6
06 20.02 ЮЗ 9 15 км слабый ливневой дождь 9/9
[Cu med, cong]
+17.4 +10.5 64 +16 +16 тепло 995.2 992.4 0.0
07 20.02 ЮЗ 9 н/о н/о +17.5 +11.1 66 +16 +16 тепло 993.9 991.1
08 20.02 ЮЗ 8 н/о н/о +16.2 +12.8 80 +15 +15 тепло 992.8 990.0
09 20.02 СЗ 3 6000 м ливневой дождь 9/9
[Cu med, cong]
+9.9 +8.2 89 +8 +8 по сезону 994.6 991.7
10 20.02 С 2 н/о н/о +9.7 +9.3 97 +8 +8 тепло 994.4 991.5
11 20.02 СЗ 2 н/о н/о +9.6 +9.2 97 +8 +8 тепло 994.7 991.8
12 20.02 СЗ 3 10 км в посл. час ливневой дождь 9/3
[Cu med, cong Ac As]
+9.9 +8.8 93 +8 +8 тепло 995.6 992.7 +19.7 7
13 20.02 СЗ 7 н/о н/о +8.5 +1.9 63 +5 +5 тепло 997.7 994.8
14 20.02 СЗ 7 н/о н/о +7.6 -1.4 53 +3 +3 по сезону 998.4 995.5
15 20.02 СЗ 5 н/о н/о +7.0 -4.1 45 +4 +4 по сезону 1000.6 997.7
16 20.02 СЗ 7 н/о н/о +7.0 -6.3 38 +3 +3 тепло 1002.7 999.8
17 20.02 СЗ 6 н/о н/о +6.5 -6.8 38 +3 +3 по сезону 1004.9 1001.9
18 20.02 СЗ 4 20 км ясно +5.9 -7.7 37 +3 +3 по сезону 1006.6 1003.6
19 20.02 СЗ 7 н/о н/о +5.5 -6.1 43 +1 +1 тепло 1008.5 1005.5
20 20.02 СЗ 5 н/о н/о +4.7 -3.6 55 0 0 по сезону 1010.7 1007.7
21 20.02 СЗ 4 20 км 1/1
[Cu Sc]
+4.2 -3.1 59 0 0 прохладно 1012.1 1009.1
22 20.02 СЗ 5 н/о н/о +4.1 -4.1 55 -0 -0 по сезону 1013.5 1010.5
23 20.02 СЗ 5 н/о н/о +5.3 -4.5 49 +2 +2 по сезону 1014.6 1011.6
00 21.02 СЗ 5 40 км 3/3
[Cu Sc]
+6.9 -3.6 47 +3 +5 по сезону 1015.5 1012.5 +3.7
01 21.02 СЗ 4 н/о н/о +7.7 -3.2 46 +5 +5 тепло 1016.6 1013.6
02 21.02 СЗ 5 н/о н/о +8.0 -6.1 36 +5 +5 по сезону 1016.8 1013.8
03 21.02 СЗ 7 35 км 1/1
[Cu med, cong]
+8.7 -5.2 37 +5 +8 по сезону 1017.5 1014.5
04 21.02 СЗ 6 н/о н/о +8.6 -9.3 27 +6 +6 по сезону 1016.9 1013.9
05 21.02 СЗ 8 н/о н/о +8.7 -11.8 22 +5 +5 по сезону 1017.3 1014.3
06 21.02 СЗ 6 25 км 1/1
[Cu hum]
+8.7 -9.2 27 +6 +7 по сезону 1018.4 1015.4
07 21.02 СЗ 5 н/о н/о +7.8 -10.5 26 +5 +5 тепло 1019.1 1016.1
08 21.02 СЗ 6 н/о н/о +6.3 -11.8 26 +3 +3 по сезону 1020.8 1017.8
09 21.02 С 6 25 км 1/1
[Cu hum Ci fib]
+5.0 -10.7 31 +1 +1 холодно 1021.7 1018.7
10 21.02 СЗ 6 н/о н/о +4.7 -11.8 29 +1 +1 по сезону 1023.3 1020.3
11 21.02 СЗ 9 н/о н/о +4.4 -10.8 32 -1 -1 прохладно 1022.6 1019.6
12 21.02 СЗ 7 20 км ясно +4.2 -10.6 33 -1 -1 холодно 1023.6 1020.6 +9.9
13 21.02 С 3 н/о н/о +4.2 -10.6 33 +2 +2 тепло 1023.8 1020.8
14 21.02 СЗ 5 н/о н/о +4.3 -11.3 31 0 0 по сезону 1023.9 1020.9
15 21.02 СЗ 4 н/о н/о +3.9 -10.5 34 0 0 прохладно 1025.1 1022.1
16 21.02 С 3 н/о н/о +3.7 -10.0 36 +1 +1 тепло 1025.7 1022.7
17 21.02 СЗ 6 н/о н/о +3.2 -9.1 40 -1 -1 по сезону 1025.5 1022.4
18 21.02 СЗ 4 20 км 8/0
[Ci sp]
+2.9 -8.4 43 -1 -1 прохладно 1026.1 1023.0

 

Местоположение метеостанции Tokyo (Япония): широта 35.68 долгота 139.76 высота над уровнем моря 36 м.

В архиве по умолчанию представлена погода в Tokyo за последнюю неделю. Архивные данные за месяц целиком и за предыдущие месяцы, начиная с января 2011 года, Вы можете получить, выбрав интересующий диапазон дат из раскрывающегося списка и нажав кнопку "Ввод!".

Внимание! Время в таблицах - всемирное. Для получения местного времени необходимо прибавить поправку, которая в Tokyo равна 9 ч.

Смотрите также архив погоды в соседних городах и на ближайших метеорологических станциях:

Погода в Yokohama (Япония) (30 км)
Погода в Chiba (Япония) (32 км)
Погода в Kumagaya (Япония) (62 км)
Погода в Chichibu (Япония) (71 км)
Погода в Katsuura (Япония) (77 км)
Погода в Tateyama (Япония) (78 км)
Погода в Ajiro (Япония) (92 км)
Погода в Kawaguchiko (Япония) (93 км)
Погода в Utsunomiya (Япония) (97 км)
Погода в Mishima (Япония) (98 км)

Пояснения к столбцам:

Ветер - указаны скорость ветра в м/с - средняя за 10 мин, порывы в срок и между сроками (в фигурных скобках) и направление, откуда дует ветер: С - северный, СВ - северо-восточный, В - восточный, ЮВ - юго-восточный, Ю - южный, ЮЗ - юго-западный, З - западный, СЗ - северо-западный.
Видимость - горизонтальная дальность видимости в метрах или километрах. При видимости от 1 до 10 км при отсутствии осадков обычно наблюдается дымка, при ухудшении видимости до 1 км и менее - туман. В сухую погоду видимость может ухудшаться дымом, пылью или мглою.
Явления - указаны атмосферные явления, наблюдавшиеся в срок или в последний час перед сроком; фигурными скобками обозначены явления, наблюдавшиеся между сроками (за 1-3 часа до срока); квадратными скобками обозначены град или гололедные отложения с указанием их диаметра в мм.
Облачность - указаны через наклонную черту общая и нижняя облачность в баллах и высота нижней границы облаков в метрах; квадратными скобками обозначены формы облаков: Ci - перистые, Cs - перисто-слоистые, Cc - перисто-кучевые, Ac - высококучевые, As - высокослоистые, Sc - слоисто-кучевые, Ns - слоисто-дождевые, Cu - кучевые, Cb - кучево-дождевые. Подробнее классификацию облаков см. в Атласе облаков (PDF).
T - Температура воздуха - температура, измеренная на высоте 2 м над землей.
Td - Температура точки росы - температура, при понижении до которой содержащийся в воздухе водяной пар достигнет насыщения.
f - Относительная влажность воздуха - влажноcть воздуха, измеренная на высоте 2 м над землей.
Te - Эффективная температура - температура, которую ощущает одетый по сезону человек в тени. Характеристика душности погоды. При расчете учитывается влияние влажности воздуха и скорости ветра на теплоощущения человека.
Tes - Эффективная температура на солнце - температура, которую ощущает человек, с поправкой на солнечный нагрев. Характеристика знойности погоды. Зависит от высоты солнца над горизонтом, облачности и скорости ветра. Ночью, в пасмурную погоду, а также при ветре 12 м/с и более поправка равна нулю.
P - Атмосферное давление - приведенное к уровню моря атмосферное давление.
Po - Атмосферное давление - измеренное на уровне метеостанции атмосферное давление.
Tmin - Минимальная температура - минимум температуры воздуха на высоте 2 м над землей.
Tmax - Максимальная температура - максимум температуры воздуха на высоте 2 м над землей.
R - Количество осадков - Количество выпавших осадков, мм. При наведении курсора мыши на число - период времени, за который выпало указанное количество осадков.
S - Снежный покров - Высота снежного покрова, см. При наведении курсора мыши на число - состояние снежного покрова и степень покрытия местности в баллах.